Torna al catalogo

TIANMU-1 11

AttivoMeteoSSO
NORAD 58645·PAYLOAD·🇨🇳 China

Lanciato Dec 25, 2023 da Jiuquan Satellite Launch Center

Loading…

Prossimi Passaggi (prossime 24 ore)

TLE

AggiornatoSource: Space-Track

Epoca: Sep 15, 2026, 00:03 UTC

1 58645U 23205A   26258.00271880  .00004945  00000-0  18474-3 0  9998
2 58645  97.3430 278.1917 0010057  54.3071 305.9103 15.27775511151238

Traccia TIANMU-1 11 in tempo reale con AllMySat

Download on the App Store